(268433) = 2005 VP42

Discovered at Mount Lemmon on 2005-11-03 by Mt. Lemmon Survey.

Orbit

Orbit type: Main Belt

Note: WebGL enabled browser required.

epoch2023-09-13.0
epoch JD2460200.5
perihelion date2019-12-05.24856
perihelion JD2458822.74856
argument of perihelion (°)279.55474
ascending node (°)160.32108
inclination (°)4.30029
eccentricity0.1804291
perihelion distance (AU)2.2726674
Tisserand w.r.t. Jupiter3.3
ΔV w.r.t. Earth (km/sec)9.6
semimajor axis (AU)2.7729967
mean anomaly (°)294.06998
mean daily motion (°/day)0.21344200
aphelion distance (AU)3.273
period (years)4.62
P-vector [x]0.17484724
P-vector [y]0.93021077
P-vector [z]0.32270166
Q-vector [x]-0.98427173
Q-vector [y]0.15672969
Q-vector [z]0.08151663
absolute magnitude16.94
phase slope0.15
uncertainty0
referenceMPO 778919
observations used194
oppositions12
arc length (days)8434
first opposition used2000
last opposition used2023
residual rms (arc-secs)0.73
perturbers coarse indicatorM-v
perturbers precise indicator003Ek
first observation date used2000-10-02.0
last observation date used2023-11-05.0
computer nameMPCLINUX
JD of orbit computation2456937.344286
perihelion JD uncertainty (days)1.0661E-04
argument of perihelion uncertainty (°)8.1441E-05
ascending node uncertainty (°)7.6254E-05
inclination uncertainty (°)6.5859E-06
eccentricity uncertainty 4.3590E-08
perihelion distance uncertainty (AU)1.2097E-07
Minimum Orbit Intersection Distances (in AU)
for orbit epoch: 2460200.5, reference: E2023-V65
Mercury1.96848
Venus1.55541
Earth1.29188
Mars0.71996
Jupiter1.99168
Saturn6.74793
Uranus15.6049
Neptune27.1242

Observations

196 total observations over interval: 2000 10 02.369620 – 2023 11 05.307392
These data are available for download (format description).

Date (UT) J2000 RA J2000 Dec Magn Location Ref
2000 10 02.369620 00 24 32.293 -00 45 07.52 20.15 V 645 – Apache Point-Sloan Digital Sky Survey MPS 166136
2000 10 02.373092 00 24 32.119 -00 45 08.97 20.77   645 – Apache Point-Sloan Digital Sky Survey MPS 166136
2002 02 11.34285 10 31 32.32 +08 01 46.3 19.9   704 – Lincoln Laboratory ETS, New Mexico MPS 166136
2002 02 11.35709 10 31 31.63 +08 01 52.4 19.4   704 – Lincoln Laboratory ETS, New Mexico MPS 166137
2002 02 11.37136 10 31 30.85 +08 01 57.5 19.7   704 – Lincoln Laboratory ETS, New Mexico MPS 166137
2002 02 16.32505 10 27 31.14 +08 34 32.1 20.5   644 – Palomar Mountain/NEAT MPS 166137
2002 02 16.40160 10 27 27.23 +08 35 02.8 20.7   644 – Palomar Mountain/NEAT MPS 166137
2002 02 16.46625 10 27 23.91 +08 35 28.8 20.9   644 – Palomar Mountain/NEAT MPS 166137
2002 03 18.15964 10 05 05.95 +11 38 29.2 21.3 V 691 – Steward Observatory, Kitt Peak-Spacewatch MPS 166137
2002 03 18.19217 10 05 04.85 +11 38 38.5 21.4 V 691 – Steward Observatory, Kitt Peak-Spacewatch MPS 166137
2002 03 18.21389 10 05 04.08 +11 38 44.5 22.5 V 691 – Steward Observatory, Kitt Peak-Spacewatch MPS 166137
2005 11 03.32806 04 20 04.95 +14 22 58.2 19.2 V 703 – Catalina Sky Survey MPS 166137
2005 11 03.33328 04 20 04.77 +14 22 58.9 19.3 V 703 – Catalina Sky Survey MPS 166137
2005 11 03.33846 04 20 04.59 +14 22 55.3 20.8 V 703 – Catalina Sky Survey MPS 166137
2005 11 03.34366 04 20 04.34 +14 22 54.2 20.1 V 703 – Catalina Sky Survey MPS 166137
2005 11 03.39677 04 20 02.40 +14 22 43.2 19.9 V G96 – Mt. Lemmon Survey MPS 151197
2005 11 03.40222 04 20 02.18 +14 22 42.0 19.7 V G96 – Mt. Lemmon Survey MPS 151197
2005 11 03.40751 04 20 02.00 +14 22 40.6 19.8 V G96 – Mt. Lemmon Survey MPS 151197
2005 11 03.41282 04 20 01.78 +14 22 39.7 20.0 V G96 – Mt. Lemmon Survey MPS 151197
2005 11 06.37241 04 18 08.06 +14 11 39.8 19.7 V 703 – Catalina Sky Survey MPS 151197
2005 11 06.38002 04 18 07.74 +14 11 37.8 19.9 V 703 – Catalina Sky Survey MPS 151197
2005 11 06.38765 04 18 07.45 +14 11 35.9 20.2 V 703 – Catalina Sky Survey MPS 151197
2005 11 06.39528 04 18 07.09 +14 11 34.0 19.7 V 703 – Catalina Sky Survey MPS 151197
2005 11 10.40259 04 15 14.40 +13 56 45.9 19.2 V 703 – Catalina Sky Survey MPS 166137
2005 11 10.40973 04 15 14.07 +13 56 44.8 19.4 V 703 – Catalina Sky Survey MPS 166137
2005 11 10.41688 04 15 13.68 +13 56 41.5 19.1 V 703 – Catalina Sky Survey MPS 166137
2005 11 10.42398 04 15 13.35 +13 56 40.4 19.1 V 703 – Catalina Sky Survey MPS 166137
2005 11 25.32208 04 02 31.88 +13 06 33.6 19.7 V 703 – Catalina Sky Survey MPS 166137
2005 11 25.33235 04 02 31.30 +13 06 31.7 19.2 V 703 – Catalina Sky Survey MPS 166137
2005 11 25.34263 04 02 30.80 +13 06 30.2 20.0 V 703 – Catalina Sky Survey MPS 166137
2005 11 25.35284 04 02 30.26 +13 06 28.3 20.3 V 703 – Catalina Sky Survey MPS 166137
2006 01 31.11827 03 49 25.68 +14 33 49.0 20.5 V G96 – Mt. Lemmon Survey MPS 166137
2006 01 31.12622 03 49 26.04 +14 33 51.6 21.2 V G96 – Mt. Lemmon Survey MPS 166137
2006 01 31.13416 03 49 26.40 +14 33 53.7 20.7 V G96 – Mt. Lemmon Survey MPS 166137
2006 01 31.14208 03 49 26.72 +14 33 56.3 20.5 V G96 – Mt. Lemmon Survey MPS 166137
2011 01 05.29399 08 22 47.56 +14 14 33.8 20.3 V 703 – Catalina Sky Survey MPS 363353
2011 01 05.30232 08 22 47.10 +14 14 37.3 20.7 V 703 – Catalina Sky Survey MPS 363353
2011 01 05.31062 08 22 46.81 +14 14 37.3 19.6 V 703 – Catalina Sky Survey MPS 363353
2011 01 05.31886 08 22 46.38 +14 14 38.2 19.5 V 703 – Catalina Sky Survey MPS 363353
2011 01 11.29898 08 17 54.74 +14 37 08.4 20.1 V 703 – Catalina Sky Survey MPS 365567
2011 01 11.30463 08 17 54.49 +14 37 09.7 20.4 V 703 – Catalina Sky Survey MPS 365567
2011 01 11.31037 08 17 54.13 +14 37 10.7 19.7 V 703 – Catalina Sky Survey MPS 365567
2011 01 11.31615 08 17 53.84 +14 37 11.4 19.7 V 703 – Catalina Sky Survey MPS 365567
2011 01 12.24903 08 17 05.74 +14 41 01.6   691 – Steward Observatory, Kitt Peak-Spacewatch MPS 365567
2011 01 12.26678 08 17 04.77 +14 41 05.9   691 – Steward Observatory, Kitt Peak-Spacewatch MPS 365567
2011 01 12.28454 08 17 03.83 +14 41 10.1   691 – Steward Observatory, Kitt Peak-Spacewatch MPS 365567
2011 01 23.27582 08 07 10.81 +15 30 35.7 19.8 V G96 – Mt. Lemmon Survey MPS 367017
2011 01 23.28334 08 07 10.38 +15 30 37.8 19.8 V G96 – Mt. Lemmon Survey MPS 367017
2011 01 23.29078 08 07 09.94 +15 30 39.9 19.7 V G96 – Mt. Lemmon Survey MPS 367017
2011 01 26.43865 08 04 20.20 +15 45 42.0 19.9 V G96 – Mt. Lemmon Survey MPS 367017
2011 01 26.44081 08 04 20.10 +15 45 42.9 20.0 V G96 – Mt. Lemmon Survey MPS 367017
2011 01 26.44300 08 04 19.95 +15 45 43.0 19.9 V G96 – Mt. Lemmon Survey MPS 367017
2011 01 26.44516 08 04 19.84 +15 45 43.9 19.9 V G96 – Mt. Lemmon Survey MPS 367017
2011 01 30.29560 08 00 59.50 +16 04 14.9 19.7 V G96 – Mt. Lemmon Survey MPS 368545
2011 01 30.30414 08 00 59.07 +16 04 17.3 19.8 V G96 – Mt. Lemmon Survey MPS 368545
2011 01 30.31277 08 00 58.60 +16 04 19.8 19.9 V G96 – Mt. Lemmon Survey MPS 368545
2011 01 30.32143 08 00 58.10 +16 04 22.2 19.9 V G96 – Mt. Lemmon Survey MPS 368545
2011 03 09.13395 07 45 48.06 +18 26 38.5 20.9 V G96 – Mt. Lemmon Survey MPS 373431
2011 03 09.14208 07 45 48.13 +18 26 39.7 20.7 V G96 – Mt. Lemmon Survey MPS 373431
2011 03 09.15023 07 45 48.16 +18 26 41.3 21.4 V G96 – Mt. Lemmon Survey MPS 373431
2011 03 09.15841 07 45 48.20 +18 26 42.9 20.6 V G96 – Mt. Lemmon Survey MPS 373431
2012 05 18.25196 14 33 55.33 -09 10 36.8 21.9 V G96 – Mt. Lemmon Survey MPS 424843
2012 05 18.25719 14 33 55.04 -09 10 35.2 21.7 V G96 – Mt. Lemmon Survey MPS 424843
2012 05 18.26243 14 33 54.82 -09 10 34.0 21.7 V G96 – Mt. Lemmon Survey MPS 424843
2012 05 18.26764 14 33 54.61 -09 10 32.2 22.5 V G96 – Mt. Lemmon Survey MPS 424843
2012 05 18.28793 14 33 53.74 -09 10 29.1 21.8 V G96 – Mt. Lemmon Survey MPS 424843
2012 05 18.29456 14 33 53.38 -09 10 27.8 21.2 V G96 – Mt. Lemmon Survey MPS 424843
2012 05 18.30127 14 33 53.13 -09 10 26.9 21.6 V G96 – Mt. Lemmon Survey MPS 424843
2012 05 18.30799 14 33 52.77 -09 10 24.6 22.1 V G96 – Mt. Lemmon Survey MPS 424843
2012 05 21.35433 14 31 42.417 -09 00 48.03 21.6 w F51 – Pan-STARRS 1, Haleakala MPS 425910
2012 05 21.36885 14 31 41.792 -09 00 45.46 21.6 w F51 – Pan-STARRS 1, Haleakala MPS 425910
2012 05 21.38337 14 31 41.156 -09 00 42.82 21.7 w F51 – Pan-STARRS 1, Haleakala MPS 425910
2012 05 21.39789 14 31 40.551 -09 00 40.39 21.8 w F51 – Pan-STARRS 1, Haleakala MPS 425910
2014 09 19.42385 01 55 04.277 +07 31 31.66 20.6 w F51 – Pan-STARRS 1, Haleakala MPS 536093
2014 09 19.43500 01 55 04.019 +07 31 28.51 20.6 w F51 – Pan-STARRS 1, Haleakala MPS 536093
2014 09 19.44620 01 55 03.754 +07 31 25.44 20.6 w F51 – Pan-STARRS 1, Haleakala MPS 536093
2014 09 19.45743 01 55 03.497 +07 31 22.20 20.6 w F51 – Pan-STARRS 1, Haleakala MPS 536093
2014 09 23.46597 01 53 24.913 +07 11 22.46 20.6 w F51 – Pan-STARRS 1, Haleakala MPS 536093
2014 09 23.47836 01 53 24.549 +07 11 18.61 20.7 w F51 – Pan-STARRS 1, Haleakala MPS 536093
2014 09 23.49079 01 53 24.187 +07 11 14.62 20.6 w F51 – Pan-STARRS 1, Haleakala MPS 536093
2014 09 23.50330 01 53 23.808 +07 11 10.72 20.6 w F51 – Pan-STARRS 1, Haleakala MPS 536093
2014 09 24.28312 01 53 02.07 +07 07 02.2 21.0 V 691 – Steward Observatory, Kitt Peak-Spacewatch MPS 536093
2014 09 24.30346 01 53 01.46 +07 06 55.8 21.2 V 691 – Steward Observatory, Kitt Peak-Spacewatch MPS 536093
2014 09 24.32379 01 53 00.83 +07 06 49.5 20.7 V 691 – Steward Observatory, Kitt Peak-Spacewatch MPS 536093
2014 10 02.24416 01 48 33.24 +06 21 22.3 20.4 V 691 – Steward Observatory, Kitt Peak-Spacewatch MPS 538552
2014 10 02.26449 01 48 32.41 +06 21 15.2 20.6 V 691 – Steward Observatory, Kitt Peak-Spacewatch MPS 538552
2014 10 02.28481 01 48 31.63 +06 21 07.5 20.3 V 691 – Steward Observatory, Kitt Peak-Spacewatch MPS 538552
2014 10 02.42608 01 48 25.87 +06 20 16.3 19.8 V G96 – Mt. Lemmon Survey MPS 538552
2014 10 02.43148 01 48 25.66 +06 20 13.9 19.9 V G96 – Mt. Lemmon Survey MPS 538552
2014 10 02.43688 01 48 25.45 +06 20 12.2 19.7 V G96 – Mt. Lemmon Survey MPS 538552
2014 10 02.44228 01 48 25.21 +06 20 09.9 20.2 V G96 – Mt. Lemmon Survey MPS 538552
2016 02 05.49546 11 40 21.205 +02 11 56.86 20.9 w F51 – Pan-STARRS 1, Haleakala MPS 681867
